User: anonymous   Login
Location: Stigler
(35.2540°N, 95.1230°W)
Time: 14:24:30
(UTC-06:00)
Language:

Cosmos 1805 - Orbit

View from above orbital plane
View from above orbital plane
View from above satellite
View from above satellite

Ground track
Ground track

The orbit data is extracted from the following two-line orbital elements,

1 17191U 86097A   17022.47730260  .00000889  00000-0  50628-4 0  9990
2 17191  82.4762 172.9569 0004442 201.7193 158.3849 15.11577702641630
Epoch (UTC): 22 January 2017 11:27:18
Eccentricity: 0.0004442
inclination: 82.4762°
perigee height: 528 km
apogee height: 534 km
right ascension of ascending node: 172.9569°
argument of perigee: 201.7193°
revolutions per day: 15.11577702
mean anomaly at epoch: 158.3849°
orbit number at epoch: 64163

The dashed part of the orbit path shows where the satellite is in the earth's shadow,  

DLR